Red Oak, IA

1:49 PM CST on February 25, 2018 (GMT -0600)
Red Oak Municipal

Weather History for KRDK - March, 2014

Change the Weather History Date:

Sunday, March 30, 2014

  Actual Average Record
Temperature  
Mean Temperature 58 °F -  
Max Temperature 75 °F 57 °F 89 °F (1968)
Min Temperature 41 °F 33 °F 5 °F (1987)
Degree Days  
Heating Degree Days 7    
Growing Degree Days 8 (Base 50)    
Moisture  
Dew Point 33 °F    
Average Humidity 42    
Maximum Humidity 66    
Minimum Humidity 22    
Precipitation  
Precipitation 0.00 in - - ()
Sea Level Pressure  
Sea Level Pressure 29.89 in    
Wind  
Wind Speed 16 mph (South)    
Max Wind Speed 32 mph    
Max Gust Speed 45 mph    
Visibility 10 miles    
Events Rain    
Averages and records for this station are not official NWS values.
T = Trace of Precipitation, MM = Missing Value Source: NWS Daily Summary

Daily Weather History Graph

Daily Weather History Graph

Search for Another Location

Airport or City:

Trip Planner

Search our weather history database for the weather conditions in past years. The results will help you decide how hot, cold, wet, or windy it might be!

Date:

Astronomy

Mar. 30, 2014 Rise Set
Actual Time 7:07 AM CDT 7:43 PM CDT
Civil Twilight 6:40 AM CDT 8:11 PM CDT
Nautical Twilight 6:07 AM CDT 8:44 PM CDT
Astronomical Twilight 5:33 AM CDT 9:18 PM CDT
Moon 6:54 AM CDT (3/30) 7:57 PM CDT (3/30)
Length of Visible Light 13h 31m
Length of Day
12h 36m
Waning Crescent, 0% of the Moon is Illuminated
Mar 30
Waning Crescent
Mar 30
New
Apr 7
First Quarter
Apr 15
Full
Apr 22
Last Quarter

Hourly Weather History & Observations

Time (CDT) Temp. Windchill Dew Point Humidity Pressure Visibility Wind Dir Wind Speed Gust Speed Precip Events Conditions
12:15 AM 42.8 °F 37.5 °F 28.4 °F 57% 30.10 in 10.0 mi SSE 9.2 mph - N/A   Clear
12:35 AM 42.8 °F 37.0 °F 28.4 °F 57% 30.09 in 10.0 mi South 10.4 mph - N/A   Clear
12:55 AM 42.8 °F 37.0 °F 28.4 °F 57% 30.09 in 10.0 mi SSE 10.4 mph - N/A   Clear
1:15 AM 42.8 °F 36.6 °F 28.4 °F 57% 30.08 in 10.0 mi SSE 11.5 mph - N/A   Scattered Clouds
1:35 AM 42.8 °F 37.0 °F 30.2 °F 61% 30.08 in 10.0 mi SSE 10.4 mph - N/A   Mostly Cloudy
1:55 AM 42.8 °F 37.0 °F 30.2 °F 61% 30.07 in 10.0 mi South 10.4 mph - N/A   Mostly Cloudy
2:15 AM 42.8 °F 37.5 °F 30.2 °F 61% 30.07 in 10.0 mi South 9.2 mph 15.0 mph N/A   Scattered Clouds
2:35 AM 42.8 °F 37.0 °F 30.2 °F 61% 30.06 in 10.0 mi South 10.4 mph - N/A   Mostly Cloudy
2:55 AM 42.8 °F 37.5 °F 30.2 °F 61% 30.06 in 10.0 mi South 9.2 mph - N/A   Mostly Cloudy
3:15 AM 42.8 °F 37.0 °F 30.2 °F 61% 30.05 in 10.0 mi South 10.4 mph - N/A   Mostly Cloudy
3:35 AM 41.0 °F 34.7 °F 30.2 °F 65% 30.04 in 10.0 mi South 10.4 mph - N/A   Partly Cloudy
3:55 AM 41.0 °F 35.2 °F 30.2 °F 65% 30.04 in 10.0 mi South 9.2 mph - N/A   Partly Cloudy
4:15 AM 41.0 °F 35.2 °F 30.2 °F 65% 30.03 in 10.0 mi South 9.2 mph - N/A   Light Drizzle
4:35 AM 41.0 °F 35.2 °F 30.2 °F 65% 30.03 in 10.0 mi South 9.2 mph - N/A   Partly Cloudy
4:55 AM 41.0 °F 34.7 °F 30.2 °F 65% 30.02 in 10.0 mi South 10.4 mph - N/A   Clear
5:15 AM 42.8 °F 36.6 °F 32.0 °F 66% 30.02 in 10.0 mi South 11.5 mph 17.3 mph N/A   Partly Cloudy
5:35 AM 42.8 °F 36.6 °F 32.0 °F 66% 30.02 in 10.0 mi South 11.5 mph 17.3 mph N/A   Partly Cloudy
5:55 AM 42.8 °F 36.2 °F 32.0 °F 66% 30.01 in 10.0 mi South 12.7 mph 20.7 mph N/A Rain Light Rain
6:15 AM 44.6 °F 39.2 °F 32.0 °F 61% 30.00 in 10.0 mi SSE 10.4 mph 17.3 mph N/A   Light Drizzle
6:35 AM 44.6 °F 39.2 °F 32.0 °F 61% 30.00 in 10.0 mi South 10.4 mph 16.1 mph N/A Rain Light Rain
6:55 AM 44.6 °F 38.8 °F 32.0 °F 61% 30.00 in 10.0 mi South 11.5 mph - N/A   Clear
7:15 AM 44.6 °F 38.4 °F 32.0 °F 61% 30.00 in 8.0 mi South 12.7 mph - N/A   Clear
7:35 AM 44.6 °F 38.8 °F 32.0 °F 61% 29.99 in 9.0 mi South 11.5 mph 17.3 mph N/A   Clear
7:55 AM 46.4 °F 39.8 °F 33.8 °F 62% 29.99 in 9.0 mi South 16.1 mph 24.2 mph N/A   Clear
8:15 AM 48.2 °F - 33.8 °F 58% 29.99 in 9.0 mi South 16.1 mph 28.8 mph N/A   Clear
8:35 AM 50.0 °F - 33.8 °F 54% 29.99 in 9.0 mi South 21.9 mph 28.8 mph N/A   Clear
8:55 AM 51.8 °F - 33.8 °F 50% 29.98 in 9.0 mi South 23.0 mph 29.9 mph N/A   Clear
9:15 AM 51.8 °F - 33.8 °F 50% 29.97 in 10.0 mi South 19.6 mph 33.4 mph N/A   Clear
9:35 AM 53.6 °F - 33.8 °F 47% 29.97 in 10.0 mi South 21.9 mph 33.4 mph N/A   Clear
9:55 AM 55.4 °F - 33.8 °F 44% 29.96 in 10.0 mi South 27.6 mph 34.5 mph N/A   Clear
10:15 AM 57.2 °F - 33.8 °F 41% 29.96 in 10.0 mi South 26.5 mph 35.7 mph N/A   Clear
10:35 AM 59.0 °F - 33.8 °F 39% 29.95 in 10.0 mi South 26.5 mph 36.8 mph N/A   Clear
10:55 AM 59.0 °F - 33.8 °F 39% 29.95 in 10.0 mi South 24.2 mph 38.0 mph N/A   Clear
11:15 AM 60.8 °F - 33.8 °F 36% 29.94 in 10.0 mi South 21.9 mph 36.8 mph N/A   Clear
11:35 AM 64.4 °F - 33.8 °F 32% 29.92 in 10.0 mi South 25.3 mph 34.5 mph N/A   Clear
11:55 AM 64.4 °F - 32.0 °F 30% 29.91 in 10.0 mi South 29.9 mph 35.7 mph N/A   Clear
12:15 PM 64.4 °F - 32.0 °F 30% 29.91 in 10.0 mi South 23.0 mph 32.2 mph N/A   Clear
12:35 PM 66.2 °F - 33.8 °F 30% 29.90 in 10.0 mi South 25.3 mph 32.2 mph N/A   Clear
12:55 PM 68.0 °F - 33.8 °F 28% 29.88 in 10.0 mi South 21.9 mph 31.1 mph N/A   Clear
1:15 PM 69.8 °F - 32.0 °F 25% 29.87 in 10.0 mi South 27.6 mph 35.7 mph N/A   Clear
1:35 PM 69.8 °F - 32.0 °F 25% 29.86 in 10.0 mi South 23.0 mph 31.1 mph N/A   Light Drizzle
1:55 PM 71.6 °F - 32.0 °F 23% 29.84 in 10.0 mi South 27.6 mph 35.7 mph N/A   Light Drizzle
2:15 PM 71.6 °F - 32.0 °F 23% 29.82 in 10.0 mi South 28.8 mph 36.8 mph N/A   Clear
2:35 PM 73.4 °F - 33.8 °F 23% 29.80 in 10.0 mi South 25.3 mph 38.0 mph N/A   Clear
2:55 PM 73.4 °F - 33.8 °F 23% 29.80 in 10.0 mi South 28.8 mph 36.8 mph N/A   Light Drizzle
3:15 PM 73.4 °F - 33.8 °F 23% 29.78 in 10.0 mi South 26.5 mph 36.8 mph N/A   Clear
3:35 PM 73.4 °F - 33.8 °F 23% 29.77 in 10.0 mi South 29.9 mph 41.4 mph N/A   Clear
3:55 PM 75.2 °F - 33.8 °F 22% 29.76 in 10.0 mi South 29.9 mph 43.7 mph N/A   Clear
4:15 PM 75.2 °F - 33.8 °F 22% 29.76 in 10.0 mi SSW 26.5 mph 34.5 mph N/A   Clear
4:35 PM 75.2 °F - 33.8 °F 22% 29.75 in 10.0 mi South 27.6 mph 44.9 mph N/A   Clear
4:55 PM 75.2 °F - 33.8 °F 22% 29.74 in 10.0 mi South 24.2 mph 34.5 mph N/A Rain Rain
5:15 PM 73.4 °F - 33.8 °F 23% 29.73 in 10.0 mi South 28.8 mph 36.8 mph N/A   Light Drizzle
5:35 PM 73.4 °F - 33.8 °F 23% 29.73 in 10.0 mi South 32.2 mph 42.6 mph N/A Rain Rain
5:55 PM 73.4 °F - 33.8 °F 23% 29.73 in 10.0 mi South 23.0 mph 38.0 mph N/A Rain Rain
6:15 PM 73.4 °F - 33.8 °F 23% 29.73 in 10.0 mi South 19.6 mph 35.7 mph N/A Rain Rain
6:35 PM 71.6 °F - 33.8 °F 25% 29.74 in 10.0 mi South 18.4 mph 31.1 mph N/A Rain Rain
6:55 PM 69.8 °F - 33.8 °F 27% 29.74 in 10.0 mi South 20.7 mph 26.5 mph N/A   Clear
7:15 PM 69.8 °F - 33.8 °F 27% 29.74 in 10.0 mi South 17.3 mph 25.3 mph N/A   Clear
7:35 PM 68.0 °F - 33.8 °F 28% 29.74 in 10.0 mi South 19.6 mph 27.6 mph N/A   Clear
7:55 PM 68.0 °F - 33.8 °F 28% 29.74 in 10.0 mi South 15.0 mph 21.9 mph N/A   Clear
8:15 PM 66.2 °F - 33.8 °F 30% 29.74 in 10.0 mi South 17.3 mph 23.0 mph N/A   Clear
8:35 PM 64.4 °F - 35.6 °F 34% 29.73 in 10.0 mi SSE 12.7 mph 20.7 mph N/A   Clear
8:55 PM 64.4 °F - 35.6 °F 34% 29.74 in 10.0 mi South 16.1 mph - N/A   Clear
9:15 PM 66.2 °F - 35.6 °F 32% 29.74 in 10.0 mi South 20.7 mph 29.9 mph N/A   Scattered Clouds
9:35 PM 64.4 °F - 35.6 °F 34% 29.74 in 10.0 mi South 16.1 mph 25.3 mph N/A   Partly Cloudy
9:55 PM 64.4 °F - 35.6 °F 34% 29.73 in 10.0 mi South 16.1 mph 21.9 mph N/A   Light Drizzle
10:15 PM 64.4 °F - 35.6 °F 34% 29.72 in 10.0 mi South 20.7 mph 26.5 mph N/A Rain Light Rain
10:35 PM 64.4 °F - 35.6 °F 34% 29.72 in 10.0 mi South 21.9 mph 31.1 mph N/A   Clear
10:55 PM 64.4 °F - 35.6 °F 34% 29.72 in 10.0 mi South 19.6 mph 27.6 mph N/A Rain Light Rain
11:15 PM 64.4 °F - 35.6 °F 34% 29.71 in 10.0 mi South 21.9 mph 32.2 mph N/A   Partly Cloudy
11:35 PM 62.6 °F - 33.8 °F 34% 29.70 in 10.0 mi SSE 16.1 mph 23.0 mph N/A   Partly Cloudy
11:55 PM 62.6 °F - 33.8 °F 34% 29.70 in 10.0 mi South 17.3 mph 29.9 mph N/A   Mostly Cloudy